RADUGA 11 [-]

Last updated on July 6, 2021, 3:35 p.m. UTC

1 13669U 82113A   21186.64573718 -.00000163  00000-0  00000-0 0  9990
2 13669  12.7289 325.3867 0036514 243.6388 301.8910  0.97710088103874
UTC
Height (km)
Latitude
Longitude
Inclination
Orbital Period
UTC large
Height (km)
Speed (km/s)
/
Latitude / Longitude
Inclination (degrees)
Orbital Period (minutes)
Azimuth
Elevation
Range (km)
Doppler Factor
iOS Compass Heading
iOS Angle